When you browse on this site, cookies collect data to enhance your experience and personalize the content and advertising you see.
Visit our Privacy Policy to learn more. By continuing to use the site, you agree to this use of cookies and data.
  • In Hungary
  • List of Countries
  • For 7 days
  • Water Temperature
  • Weather Map
  • News
  • Weather Widgets
  • user-avatar
    Login

    Hourly Weather Annaba

    Today, 27 February, Thursday

    Time Temperature Precipitation Wind Pressure Humidity
    00:00 +11°C° 0.1 mm 3 mps 763 mmHg 89%
    01:00 +11°C° 0 mm 3 mps 763 mmHg 90%
    02:00 +11°C° 0.3 mm 3 mps 763 mmHg 90%
    03:00 +11°C° 0.3 mm 3 mps 763 mmHg 89%
    04:00 +12°C° 0.3 mm 2 mps 762 mmHg 89%
    05:00 +10°C° 0.2 mm 2 mps 763 mmHg 89%
    06:00 +10°C° 0.2 mm 2 mps 763 mmHg 88%
    07:00 +10°C° 0 mm 2 mps 763 mmHg 88%
    08:00 +12°C° 0 mm 2 mps 763 mmHg 82%
    09:00 +13°C° 0 mm 3 mps 764 mmHg 76%
    10:00 +14°C° 0 mm 4 mps 764 mmHg 71%
    11:00 +15°C° 0 mm 4 mps 763 mmHg 63%
    12:00 +18°C° 0 mm 4 mps 763 mmHg 55%
    13:00 +19°C° 0 mm 4 mps 763 mmHg 49%
    14:00 +19°C° 0 mm 4 mps 763 mmHg 49%
    15:00 +19°C° 0 mm 4 mps 762 mmHg 49%
    16:00 +19°C° 0 mm 4 mps 762 mmHg 49%
    17:00 +17°C° 0 mm 3 mps 762 mmHg 55%
    18:00 +15°C° 0 mm 2 mps 763 mmHg 61%
    19:00 +13°C° 0 mm 2 mps 763 mmHg 67%
    20:00 +13°C° 0 mm 2 mps 763 mmHg 68%
    21:00 +12°C° 0 mm 3 mps 763 mmHg 68%
    22:00 +11°C° 0 mm 3 mps 763 mmHg 68%
    23:00 +11°C° 0 mm 3 mps 764 mmHg 68%

    Tomorrow, 28 February, Friday

    Time Temperature Precipitation Wind Pressure Humidity
    00:00 +11°C° 0 mm 3 mps 764 mmHg 68%
    01:00 +11°C° 0 mm 4 mps 764 mmHg 69%
    02:00 +11°C° 0 mm 4 mps 763 mmHg 67%
    03:00 +11°C° 0 mm 4 mps 763 mmHg 66%
    04:00 +11°C° 0 mm 4 mps 763 mmHg 65%
    05:00 +11°C° 0 mm 4 mps 763 mmHg 63%
    06:00 +11°C° 0 mm 4 mps 763 mmHg 62%
    07:00 +11°C° 0 mm 4 mps 763 mmHg 60%
    08:00 +13°C° 0 mm 4 mps 764 mmHg 56%
    09:00 +15°C° 0 mm 4 mps 764 mmHg 53%
    10:00 +19°C° 0 mm 4 mps 764 mmHg 49%
    11:00 +19°C° 0 mm 4 mps 764 mmHg 48%
    12:00 +20°C° 0 mm 4 mps 764 mmHg 48%
    13:00 +21°C° 0 mm 5 mps 764 mmHg 47%
    14:00 +21°C° 0 mm 5 mps 763 mmHg 50%
    15:00 +20°C° 0 mm 4 mps 763 mmHg 53%
    16:00 +20°C° 0 mm 4 mps 763 mmHg 56%
    17:00 +18°C° 0 mm 3 mps 763 mmHg 67%
    18:00 +16°C° 0 mm 2 mps 763 mmHg 78%
    19:00 +14°C° 0 mm 1 mps 763 mmHg 89%
    20:00 +14°C° 0 mm 1 mps 764 mmHg 88%
    21:00 +13°C° 0 mm 2 mps 764 mmHg 88%
    22:00 +13°C° 0 mm 2 mps 764 mmHg 88%
    23:00 +13°C° 0 mm 2 mps 764 mmHg 86%

    Day after tomorrow, 29 February, Saturday

    Time Temperature Precipitation Wind Pressure Humidity
    00:00 +13°C° 0 mm 2 mps 763 mmHg 84%
    01:00 +13°C° 0 mm 2 mps 763 mmHg 82%
    02:00 +12°C° 0 mm 2 mps 762 mmHg 79%
    03:00 +12°C° 0 mm 2 mps 762 mmHg 76%
    04:00 +12°C° 0 mm 2 mps 761 mmHg 74%
    05:00 +12°C° 0 mm 2 mps 761 mmHg 72%
    06:00 +12°C° 0 mm 2 mps 761 mmHg 70%
    07:00 +12°C° 0 mm 2 mps 760 mmHg 68%
    08:00 +15°C° 0 mm 2 mps 760 mmHg 61%
    09:00 +17°C° 0 mm 2 mps 760 mmHg 54%
    10:00 +20°C° 0 mm 2 mps 760 mmHg 47%
    11:00 +21°C° 0 mm 2 mps 760 mmHg 44%
    12:00 +24°C° 0 mm 2 mps 759 mmHg 41%
    13:00 +26°C° 0 mm 2 mps 759 mmHg 37%
    14:00 +25°C° 0 mm 2 mps 759 mmHg 39%
    15:00 +25°C° 0 mm 3 mps 758 mmHg 40%
    16:00 +25°C° 0 mm 4 mps 758 mmHg 41%
    17:00 +21°C° 0 mm 3 mps 758 mmHg 47%
    18:00 +19°C° 0 mm 3 mps 759 mmHg 53%
    19:00 +16°C° 0 mm 3 mps 759 mmHg 59%
    20:00 +16°C° 0 mm 3 mps 759 mmHg 60%
    21:00 +14°C° 0 mm 3 mps 760 mmHg 61%
    22:00 +14°C° 0 mm 3 mps 760 mmHg 63%
    23:00 +14°C° 0 mm 3 mps 760 mmHg 60%

    1 March, Sunday

    Time Temperature Precipitation Wind Pressure Humidity
    00:00 +15°C° 0 mm 2 mps 760 mmHg 58%
    01:00 +15°C° 0 mm 2 mps 760 mmHg 56%
    02:00 +14°C° 0 mm 2 mps 760 mmHg 57%
    03:00 +14°C° 0 mm 2 mps 759 mmHg 57%
    04:00 +14°C° 0 mm 2 mps 759 mmHg 58%
    05:00 +14°C° 0 mm 2 mps 759 mmHg 58%
    06:00 +13°C° 0 mm 2 mps 759 mmHg 58%
    07:00 +13°C° 0 mm 2 mps 759 mmHg 58%
    08:00 +15°C° 0 mm 2 mps 759 mmHg 55%
    09:00 +17°C° 0 mm 2 mps 759 mmHg 52%
    10:00 +19°C° 0 mm 2 mps 759 mmHg 49%
    11:00 +20°C° 0 mm 2 mps 759 mmHg 49%
    12:00 +21°C° 0 mm 3 mps 759 mmHg 48%
    13:00 +22°C° 0 mm 4 mps 759 mmHg 47%
    14:00 +21°C° 0 mm 4 mps 758 mmHg 54%
    15:00 +20°C° 0 mm 5 mps 758 mmHg 61%
    16:00 +19°C° 0 mm 5 mps 758 mmHg 68%
    17:00 +18°C° 0 mm 4 mps 759 mmHg 73%
    18:00 +17°C° 0 mm 3 mps 759 mmHg 78%
    19:00 +16°C° 0 mm 2 mps 760 mmHg 83%
    20:00 +16°C° 0 mm 2 mps 760 mmHg 83%
    21:00 +14°C° 0 mm 3 mps 760 mmHg 83%
    22:00 +14°C° 0 mm 3 mps 761 mmHg 83%
    23:00 +13°C° 0 mm 3 mps 761 mmHg 83%

    2 March, Monday

    Time Temperature Precipitation Wind Pressure Humidity
    00:00 +13°C° 0 mm 3 mps 761 mmHg 83%
    01:00 +13°C° 0 mm 3 mps 761 mmHg 84%
    02:00 +13°C° 0 mm 3 mps 760 mmHg 84%
    03:00 +12°C° 0 mm 3 mps 760 mmHg 84%
    04:00 +12°C° 0 mm 3 mps 759 mmHg 85%
    05:00 +12°C° 0 mm 3 mps 759 mmHg 83%
    06:00 +12°C° 0 mm 3 mps 759 mmHg 82%
    07:00 +12°C° 0 mm 3 mps 759 mmHg 80%
    08:00 +14°C° 0 mm 3 mps 758 mmHg 72%
    09:00 +17°C° 0 mm 2 mps 758 mmHg 64%
    10:00 +19°C° 0 mm 2 mps 758 mmHg 56%
    11:00 +20°C° 0 mm 2 mps 758 mmHg 53%
    12:00 +21°C° 0 mm 2 mps 757 mmHg 50%
    13:00 +22°C° 0 mm 3 mps 757 mmHg 47%
    14:00 +21°C° 0 mm 4 mps 756 mmHg 52%
    15:00 +20°C° 0 mm 5 mps 755 mmHg 57%
    16:00 +19°C° 0 mm 6 mps 755 mmHg 62%
    17:00 +17°C° 0.2 mm 5 mps 755 mmHg 68%
    18:00 +17°C° 0.2 mm 4 mps 755 mmHg 73%
    19:00 +16°C° 0.2 mm 3 mps 755 mmHg 79%
    20:00 +15°C° 0.2 mm 4 mps 755 mmHg 80%
    21:00 +15°C° 0.2 mm 5 mps 755 mmHg 82%
    22:00 +15°C° 0.2 mm 6 mps 755 mmHg 83%
    23:00 +15°C° 1.1 mm 6 mps 755 mmHg 86%

    3 March, Tuesday

    Time Temperature Precipitation Wind Pressure Humidity
    00:00 +14°C° 1.1 mm 6 mps 756 mmHg 89%
    01:00 +14°C° 1.1 mm 7 mps 756 mmHg 91%
    02:00 +14°C° 1 mm 6 mps 755 mmHg 90%
    03:00 +14°C° 1 mm 6 mps 755 mmHg 88%
    04:00 +14°C° 1 mm 6 mps 755 mmHg 87%
    05:00 +12°C° 0.4 mm 7 mps 755 mmHg 87%
    06:00 +12°C° 0.4 mm 7 mps 755 mmHg 87%
    07:00 +12°C° 0.4 mm 8 mps 755 mmHg 87%
    08:00 +12°C° 0.4 mm 9 mps 756 mmHg 82%
    09:00 +13°C° 0.4 mm 11 mps 757 mmHg 76%
    10:00 +13°C° 0.4 mm 12 mps 758 mmHg 71%
    11:00 +13°C° 0.2 mm 11 mps 758 mmHg 67%
    12:00 +13°C° 0.2 mm 11 mps 759 mmHg 63%
    13:00 +13°C° 0.2 mm 10 mps 760 mmHg 60%
    14:00 +13°C° 0 mm 9 mps 759 mmHg 58%
    15:00 +13°C° 0 mm 9 mps 759 mmHg 57%
    16:00 +13°C° 0 mm 8 mps 759 mmHg 55%
    17:00 +12°C° 0 mm 8 mps 760 mmHg 59%
    18:00 +11°C° 0 mm 7 mps 760 mmHg 64%
    19:00 +10°C° 0 mm 6 mps 760 mmHg 68%
    20:00 +10°C° 0 mm 6 mps 761 mmHg 69%
    21:00 +9°C° 0 mm 5 mps 761 mmHg 70%
    22:00 +10°C° 0 mm 4 mps 762 mmHg 72%
    23:00 +10°C° 0 mm 4 mps 762 mmHg 72%
    Show more